Grand Marais, MN

7:38 AM CST on November 23, 2017 (GMT -0600)
Grand Marais

Weather History for KGNA - June, 2013

Change the Weather History Date:

Monday, June 17, 2013

  Actual Average (KCKC) Record (KCKC)
Temperature  
Mean Temperature 48 °F -  
Max Temperature 52 °F 66 °F 75 °F (1998)
Min Temperature 43 °F 46 °F 35 °F (1997)
Degree Days  
Heating Degree Days 17    
Moisture  
Dew Point 40 °F    
Average Humidity 80    
Maximum Humidity 90    
Minimum Humidity 63    
Precipitation  
Precipitation 0.01 in - - ()
Sea Level Pressure  
Sea Level Pressure 30.04 in    
Wind  
Wind Speed 7 mph (NE)    
Max Wind Speed 13 mph    
Max Gust Speed 22 mph    
Averages and records for this station are not official NWS values.
T = Trace of Precipitation, MM = Missing Value Source: NWS Daily Summary

Daily Weather History Graph

Daily Weather History Graph

Search for Another Location

Airport or City:

Trip Planner

Search our weather history database for the weather conditions in past years. The results will help you decide how hot, cold, wet, or windy it might be!

Date:

Astronomy

Jun. 17, 2013 Rise Set
Actual Time 5:02 AM CDT 9:02 PM CDT
Civil Twilight 4:21 AM CDT 9:43 PM CDT
Nautical Twilight 3:24 AM CDT 10:40 PM CDT
Astronomical Twilight 1:51 AM CDT 12:13 AM CDT
Moon 2:19 PM CDT (6/17) 1:03 AM CDT (6/17)
Length of Visible Light 17h 21m
Length of Day
16h 00m
First Quarter, 60% of the Moon is Illuminated
Jun 17
First Quarter
Jun 23
Full
Jun 29
Last Quarter
Jul 8
New
Jul 15
First Quarter

Hourly Weather History & Observations

Time (CDT) Temp. Windchill Dew Point Humidity Pressure Visibility Wind Dir Wind Speed Gust Speed Precip Events Conditions
12:56 AM 48.9 °F - 46.0 °F 90% 29.93 in - ENE 12.7 mph 21.9 mph N/A   Unknown
1:56 AM 48.0 °F - 44.1 °F 86% 29.93 in - ENE 5.8 mph - N/A   Unknown
2:56 AM 46.0 °F 41.4 °F 42.1 °F 86% 29.94 in - ENE 9.2 mph - N/A   Unknown
3:56 AM 45.0 °F 41.2 °F 42.1 °F 90% 29.96 in - ENE 6.9 mph - N/A   Unknown
4:56 AM 44.1 °F 41.5 °F 41.0 °F 89% 29.97 in - NE 4.6 mph - N/A   Unknown
5:56 AM 46.0 °F 42.5 °F 42.1 °F 86% 29.99 in - ENE 6.9 mph - N/A   Unknown
6:56 AM 45.0 °F 42.6 °F 39.9 °F 82% 30.00 in - ENE 4.6 mph - N/A   Unknown
7:56 AM 45.0 °F 41.8 °F 41.0 °F 86% 30.01 in - ENE 5.8 mph - N/A   Unknown
8:56 AM 45.0 °F 40.1 °F 39.9 °F 82% 30.02 in - ENE 9.2 mph - N/A   Unknown
9:56 AM 46.0 °F 41.0 °F 39.9 °F 79% 30.02 in - ENE 10.4 mph - N/A   Unknown
10:56 AM 46.9 °F - 41.0 °F 80% 30.05 in - ENE 9.2 mph 17.3 mph 0.01 in   Unknown
11:56 AM 45.0 °F 38.9 °F 39.9 °F 82% 30.07 in - ENE 12.7 mph - N/A   Unknown
12:56 PM 46.9 °F - 39.9 °F 77% 30.08 in - ENE 8.1 mph - N/A   Unknown
1:56 PM 46.9 °F - 39.0 °F 74% 30.09 in - ENE 6.9 mph - N/A   Unknown
2:56 PM 46.9 °F - 39.9 °F 77% 30.09 in - ENE 6.9 mph - N/A   Unknown
3:56 PM 48.0 °F - 39.0 °F 71% 30.10 in - ENE 9.2 mph - N/A   Unknown
4:56 PM 51.1 °F - 39.9 °F 66% 30.09 in - Calm Calm - N/A   Unknown
5:56 PM 52.0 °F - 39.9 °F 63% 30.08 in - Calm Calm - N/A   Unknown
6:56 PM 50.0 °F - 37.9 °F 63% 30.09 in - Calm Calm - N/A   Unknown
7:56 PM 46.0 °F - 37.0 °F 71% 30.09 in - Calm Calm - N/A   Unknown
8:56 PM 46.9 °F - 41.0 °F 80% 30.09 in - Calm Calm - N/A   Unknown
9:56 PM 45.0 °F 43.5 °F 39.9 °F 82% 30.10 in - NW 3.5 mph - N/A   Unknown
10:56 PM 44.1 °F 42.5 °F 39.0 °F 82% 30.10 in - NW 3.5 mph - N/A   Unknown
11:56 PM 43.0 °F 40.3 °F 39.0 °F 86% 30.13 in - NNW 4.6 mph - N/A   Unknown